Hourly Data Report for January 14, 2020

TORONTO CITY
ONTARIO
Current Station Operator: ECCC - MSC

43°40'00.000" N
79°24'00.000" W
112.50 m
6158355
71508
XTO

Download Data

Hourly Data (January 2020)
Hourly Data Report for January 14, 2020
TIME
LST
Temp Definition
°C
Dew Point Definition
°C
Rel Hum Definition
%
Precip. Amount Definition
mm

Wind Dir Definition
10's deg

Wind Spd Definition
km/h
Visibility Definition
km
Stn Press Definition
kPa
Hmdx Definition


Wind Chill Definition


Weather Definition


00:00 1.2 -1.3 83 0.0       101.52     LegendNANA
01:00 0.9 -1.6 84 0.0       101.47     LegendNANA
02:00 0.8 -1.9 82 0.0       101.47     LegendNANA
03:00 0.6 -2.4 80 0.0       101.43     LegendNANA
04:00 0.7 -1.8 84 0.0       101.30     LegendNANA
05:00 0.9 -2.2 80 0.0       101.19     LegendNANA
06:00 1.0 -1.5 83 0.0       101.10     LegendNANA
07:00 1.1 -1.2 84 0.0       100.99     LegendNANA
08:00 1.4 -0.9 85 0.0       100.86     LegendNANA
09:00 2.1 -0.1 86 0.0       100.87     LegendNANA
10:00 2.3 0.0 85 0.0       100.79     LegendNANA
11:00
12:00
13:00 2.5 0.1 84 0.0       100.35     LegendNANA
14:00 1.5 -0.4 87 0.0       100.20     LegendNANA
15:00 1.2 -0.3 90 0.0       100.17     LegendNANA
16:00 1.3 -0.1 91 0.0       100.23     LegendNANA
17:00 1.1 -0.1 92 0.0       100.26     LegendNANA
18:00 1.4 0.3 92 0.0       100.33     LegendNANA
19:00 2.0 0.9 93 0.0       100.34     LegendNANA
20:00 2.8 1.4 91 0.0       100.37     LegendNANA
21:00 2.9 1.5 90 0.0       100.43     LegendNANA
22:00 3.3 1.7 89 0.0       100.43     LegendNANA
23:00 3.5 0.7 82 0.0       100.48     LegendNANA

Notes on Data Quality.

Legend

  • E = Estimated
  • M = Missing
  • NA = Not Available*
  • [empty] = Indicates an unobserved value
Date modified: